Location: Greenwich
(51.4790°N, 0.0090°E)
Time: 16:18:12
(UTC+01:00)

Transit 2A - All Passes

Search period start: 23 June 2025 00:00
Search period end: 03 July 2025 00:00
Orbit: 599 x 947 km, 66.7° (Epoch: 22 June)

Date Brightness Start Highest point End Pass type
(mag) Time Alt. Az. Time Alt. Az. Time Alt. Az.
23 Jun - 01:14:50 10° WSW 01:18:54 38° NW 01:23:01 10° NNE visible
23 Jun - 03:00:48 10° NW 03:03:09 14° NNW 03:05:33 10° NNE visible
23 Jun - 04:46:08 10° NNW 04:48:08 13° N 04:50:10 10° NE daylight
23 Jun - 06:28:43 10° NNW 06:32:39 28° NE 06:36:50 10° E daylight
23 Jun - 08:11:23 10° NW 08:16:02 70° SW 08:21:07 10° SSE daylight
23 Jun - 09:56:28 10° W 09:58:20 12° WSW 10:00:16 10° SW daylight
23 Jun - 22:56:31 10° SSE 23:00:03 24° ESE 23:03:34 10° ENE visible
24 Jun - 00:38:29 10° WSW 00:42:45 52° NW 00:47:03 10° NNE visible
24 Jun - 02:23:59 10° WNW 02:26:45 16° NNW 02:29:35 10° NNE visible
24 Jun - 04:09:57 10° NNW 04:11:40 12° N 04:13:25 10° NNE daylight
24 Jun - 05:52:47 10° NNW 05:56:22 22° NNE 06:00:09 10° E daylight
24 Jun - 07:35:20 10° NW 07:40:00 83° NE 07:45:07 10° SE daylight
24 Jun - 09:19:19 10° WNW 09:22:32 18° WSW 09:25:57 10° SSW daylight
24 Jun - 22:21:30 10° SSE 22:24:14 16° ESE 22:26:57 10° ENE visible
25 Jun - 00:02:18 10° SW 00:06:40 76° NW 00:11:03 10° NE visible
25 Jun - 01:47:13 10° WNW 01:50:24 19° NNW 01:53:38 10° NNE visible
25 Jun - 03:33:34 10° NNW 03:35:12 12° N 03:36:51 10° NNE visible
25 Jun - 05:16:51 10° NNW 05:20:03 18° NNE 05:23:23 10° ENE daylight
25 Jun - 06:59:20 10° NNW 07:03:56 60° NE 07:08:56 10° SE daylight
25 Jun - 08:42:45 10° WNW 08:46:41 26° WSW 08:50:55 10° S daylight
25 Jun - 21:47:34 10° ESE 21:48:28 11° ESE 21:49:21 10° E daylight
25 Jun - 23:26:17 10° SSW 23:30:37 74° SE 23:34:59 10° NE visible
26 Jun - 01:10:32 10° W 01:14:05 24° NNW 01:17:43 10° NNE visible
26 Jun - 02:56:58 10° NNW 02:58:44 12° N 03:00:32 10° NNE visible
26 Jun - 04:40:54 10° NNW 04:43:40 16° NNE 04:46:33 10° ENE daylight
26 Jun - 06:23:22 10° NNW 06:27:48 44° NE 06:32:36 10° ESE daylight
26 Jun - 08:06:26 10° NW 08:10:47 37° WSW 08:15:31 10° S daylight
26 Jun - 22:50:27 10° SSW 22:54:39 49° ESE 22:58:52 10° NE visible
27 Jun - 00:33:58 10° W 00:37:50 31° NW 00:41:46 10° NNE visible
27 Jun - 02:20:11 10° NW 02:22:17 13° NNW 02:24:24 10° NNE visible
27 Jun - 04:04:54 10° NNW 04:07:16 14° NNE 04:09:40 10° NE daylight
27 Jun - 05:47:25 10° NNW 05:51:37 33° NE 05:56:08 10° ESE daylight
27 Jun - 07:30:14 10° NW 07:34:50 54° WSW 07:39:52 10° SSE daylight
27 Jun - 22:14:50 10° S 22:18:44 33° ESE 22:22:38 10° NE visible
27 Jun - 23:57:31 10° WSW 00:01:38 41° NW 00:05:50 10° NNE visible
28 Jun - 01:43:22 10° NW 01:45:50 15° NNW 01:48:23 10° NNE visible
28 Jun - 03:28:50 10° NNW 03:30:49 13° N 03:32:51 10° NE visible
28 Jun - 05:11:29 10° NNW 05:15:23 26° NE 05:19:32 10° E daylight
28 Jun - 06:54:08 10° NW 06:58:50 77° SW 07:03:59 10° SSE daylight
28 Jun - 08:38:48 10° WNW 08:41:13 14° WSW 08:43:43 10° SW daylight
28 Jun - 21:39:30 10° SSE 21:42:52 22° ESE 21:46:14 10° ENE daylight
28 Jun - 23:21:13 10° SW 23:25:30 57° NW 23:29:51 10° NNE visible
29 Jun - 01:06:33 10° WNW 01:09:27 17° NNW 01:12:25 10° NNE visible
29 Jun - 02:52:36 10° NNW 02:54:20 12° N 02:56:07 10° NNE visible
29 Jun - 04:35:33 10° NNW 04:39:05 21° NNE 04:42:50 10° E daylight
29 Jun - 06:18:06 10° NW 06:22:48 77° NE 06:27:56 10° SE daylight
29 Jun - 08:01:53 10° WNW 08:05:23 20° WSW 08:09:07 10° SSW daylight
29 Jun - 21:04:38 10° SE 21:07:03 15° ESE 21:09:30 10° ENE daylight
29 Jun - 22:45:04 10° SW 22:49:25 83° NW 22:53:50 10° NE visible
30 Jun - 00:29:48 10° WNW 00:33:06 20° NNW 00:36:28 10° NNE visible
30 Jun - 02:16:10 10° NNW 02:17:52 12° N 02:19:37 10° NNE visible
30 Jun - 03:59:37 10° NNW 04:02:45 18° NNE 04:06:02 10° ENE visible
30 Jun - 05:42:05 10° NNW 05:46:42 56° NE 05:51:43 10° SE daylight
30 Jun - 07:25:24 10° WNW 07:29:32 29° WSW 07:33:58 10° S daylight
30 Jun - 22:09:05 10° SSW 22:13:24 67° ESE 22:17:45 10° NE visible
30 Jun - 23:53:09 10° W 23:56:48 25° NNW 00:00:32 10° NNE visible
01 Jul - 01:39:31 10° NNW 01:41:24 12° N 01:43:20 10° NNE visible
01 Jul - 03:23:38 10° NNW 03:26:22 15° NNE 03:29:11 10° NE visible
01 Jul - 05:06:08 10° NNW 05:10:33 41° NE 05:15:21 10° ESE daylight
01 Jul - 06:49:07 10° NW 06:53:36 41° WSW 06:58:29 10° S daylight
01 Jul - 21:33:18 10° SSW 21:37:26 44° ESE 21:41:36 10° NE daylight
01 Jul - 23:16:37 10° WSW 23:20:33 33° NW 23:24:35 10° NNE visible
02 Jul - 01:02:43 10° NW 01:04:57 13° NNW 01:07:13 10° NNE visible
02 Jul - 02:47:37 10° NNW 02:49:56 14° NNE 02:52:19 10° NE visible
02 Jul - 04:30:11 10° NNW 04:34:21 32° NE 04:38:51 10° E daylight
02 Jul - 06:12:57 10° NW 06:17:38 59° WSW 06:22:46 10° SSE daylight
02 Jul - 20:57:45 10° S 21:01:32 30° ESE 21:05:20 10° NE daylight
02 Jul - 22:40:12 10° WSW 22:44:22 44° NW 22:48:37 10° NNE visible
